Regional Weather Roundup
Issued by NWS Little Rock, AR

Home | Current Version | Previous Version | Text Only | Print | Product List | Glossary Off
Versions: 1 2 3 4 5 6 7 8 9 10 11 12 13 14 15 16 17 18 19 20 21 22 23 24 25 26 27 28 29 30 31 32 33 34 35 36 37 38 39 40 41 42 43 44 45 46 47 48 49 50

000
ASUS44 KLZK 071705
RWRLZK

WEATHER ROUNDUP FOR ARKANSAS
NATIONAL WEATHER SERVICE LITTLE ROCK AR
1100 AM CST SUN FEB 07 2016

NOTE: "FAIR" INDICATES FEW OR NO CLOUDS BELOW 12,000 FEET WITH NO
SIGNIFICANT WEATHER AND/OR OBSTRUCTIONS TO VISIBILITY.

ARZ001-003-010-029-071800-
NORTHWEST ARKANSAS

CITY           SKY/WX    TMP DP  RH WIND       PRES   REMARKS
FAYETTEVILLE   MOSUNNY   48  31  51 SW13G23   30.13F
FORT SMITH     SUNNY     50  31  48 SW7       30.17F
HARRISON       MOSUNNY   52  26  36 W12G17    30.09F
BENTONVILLE    CLOUDY   N/A N/A N/A W17G23    30.13S
ROGERS         CLOUDY    46  32  58 W14G23    30.12F
SILOAM SPGS    CLOUDY    46  28  49 SW17      30.14F
HIGHFILL       MOSUNNY   47  33  58 SW16G23   30.12F
SPRINGDALE     SUNNY     46  30  53 SW17      30.14F
$$

ARZ004-005-016-071800-
NORTH CENTRAL ARKANSAS

CITY           SKY/WX    TMP DP  RH WIND       PRES   REMARKS
BATESVILLE     SUNNY     55  28  35 SW18G28   30.14F
FLIPPIN        SUNNY     54  27  35 W15G22    30.08F
MTN HOME       SUNNY     51  29  42 W7        30.08F
$$

ARZ040-041-071800-
WEST CENTRAL ARKANSAS

CITY           SKY/WX    TMP DP  RH WIND       PRES   REMARKS
MENA           SUNNY     52  34  50 SW8       30.20S
MOUNT IDA      SUNNY     55  25  31 SW9G17    30.16S
$$

ARZ009-017-025-026-028-071800-
NORTHEAST ARKANSAS

CITY           SKY/WX    TMP DP  RH WIND       PRES   REMARKS
CORNING        FAIR      52  34  50 SW18      30.12F
JONESBORO      SUNNY     49  34  56 SW16      30.14F
NEWPORT        SUNNY     54  31  41 S16       30.15F
WALNUT RIDGE   SUNNY     54  30  40 SW18G25   30.12F
BLYTHEVILLE    SUNNY     55  32  41 SW17G23   30.16F
$$

ARZ022-023-033-042-044-071800-
CENTRAL ARKANSAS

CITY           SKY/WX    TMP DP  RH WIND       PRES   REMARKS
LITTLE ROCK    MOSUNNY   54  28  36 W17       30.20F
JACKSONVILLE   SUNNY     56  27  33 SW15G23   30.16F
SEARCY         SUNNY     54  31  41 SW12G17   30.17F
HOT SPRINGS    SUNNY     52  29  41 W14G21    30.21F
RUSSELLVILLE   SUNNY     49  31  49 W6        30.17F
CLINTON        FAIR      52  30  43 SW10G17   30.15F
$$

ARZ036-071800-
EAST ARKANSAS

CITY           SKY/WX    TMP DP  RH WIND       PRES   REMARKS
WEST MEMPHIS   SUNNY     53  35  50 SW8       30.18F
$$

ARZ050-053-066-070-073-071800-
SOUTHWEST ARKANSAS

CITY           SKY/WX    TMP DP  RH WIND       PRES   REMARKS
ARKADELPHIA    FAIR      54  37  52 SW9       30.23F
CAMDEN         SUNNY     55  28  35 SW9       30.25F
TEXARKANA      SUNNY     54  31  41 SW9       30.24S
EL DORADO      SUNNY     54  29  38 SW9       30.25S
DE QUEEN       SUNNY     50  36  58 W13       30.22F
$$

ARZ056-057-069-071800-
SOUTHEAST ARKANSAS

CITY           SKY/WX    TMP DP  RH WIND       PRES   REMARKS
PINE BLUFF     SUNNY     53  30  41 W15       30.22F
STUTTGART      SUNNY     54  36  50 SW14      30.21F
MONTICELLO     SUNNY     55  32  41 SW9       30.23F

$$





USA.gov is the U.S. government's official web portal to all federal, state and local government web resources and services.